Location: Çayiçi
(36.4667°N, 30.2333°E)
Time: 02:45:13
(UTC+00:00)

Cosmos 2322 - Pass Details

Date: 09 February 2023
Orbit: 841 x 853 km, 71.0° (Epoch: 01 April)

Event Time Altitude Azimuth Distance (km) Brightness Sun altitude
Rises 15:47:10 0° 191° (S) 3,403 7.2 -3.5°
Reaches altitude 10° 15:49:37 10° 188° (S) 2,472 6.5 -4.0°
Maximum altitude 15:55:13 63° 108° (ESE) 951 3.8 -5.1°
Drops below altitude 10° 16:00:51 10° 29° (NNE) 2,488 5.8 -6.2°
Sets 16:03:20 0° 26° (NNE) 3,427 6.5 -6.7°
